Regional Weather Roundup
Issued by NWS

Home | Current Version | Previous Version | Text Only | Print | Product List | Glossary Off
Versions: 1 2 3 4 5 6 7 8 9 10 11 12 13 14 15 16 17 18 19 20 21 22 23 24 25 26 27 28 29 30 31 32 33 34 35 36 37 38 39 40 41 42 43 44 45 46 47 48 49 50

000
ASUS43 KLMK 302010
RWRKY
KENTUCKY REGIONAL WEATHER ROUNDUP
NATIONAL WEATHER SERVICE LOUISVILLE KY
400 PM EDT SAT MAY 30 2015

NOTE "FAIR" INDICATES FEW OR NO CLOUDS BELOW 12,000 FEET
WITH NO SIGNIFICANT WEATHER AND/OR OBSTRUCTIONS TO VISIBILITY.

KYZ001>023-026-027-061>063-070>075-302100-
WESTERN AND SOUTH CENTRAL KENTUCKY

CITY           SKY/WX    TMP DP  RH WIND       PRES   REMARKS
PADUCAH        TSTM      70  66  87 S14       29.92F
HENDERSON      PTSUNNY   79  70  73 S12G20    29.92S
OWENSBORO      MOSUNNY   85  70  60 S22       29.94F
HOPKINSVILLE   MOSUNNY   83  66  56 S16G22    29.97S
BOWLING GREEN  MOSUNNY   82  65  56 S17       30.01F
GLASGOW        PTSUNNY   78  66  66 S6        30.02F
$$

KYZ024-025-028>034-038-045-046-053-302100-
NORTH CENTRAL KENTUCKY

CITY           SKY/WX    TMP DP  RH WIND       PRES   REMARKS
LOUISVILLE/SDF MOSUNNY   86  67  52 S18G25    29.97F
LOUISVILLE/LOU MOSUNNY   84  67  56 S15G22    29.98F
FORT KNOX      CLOUDY    79  67  67 S10       29.98S
$$

KYZ035>037-039>044-047>052-055>060-089>105-302100-
NORTHEAST KENTUCKY

CITY           SKY/WX    TMP DP  RH WIND       PRES   REMARKS
LEXINGTON      MOSUNNY   83  64  52 S16       30.03F
COVINGTON      PTSUNNY   84  67  56 S13G23    29.99
FRANKFORT      MOSUNNY   85  64  49 S16G24    30.00F
$$

KYZ054-064>069-076>088-106>120-302100-
SOUTHEAST KENTUCKY

CITY           SKY/WX    TMP DP  RH WIND       PRES   REMARKS
JACKSON        MOSUNNY   83  61  47 SE5       30.08F
LONDON         MOSUNNY   84  57  39 S12       30.08F
SOMERSET       SUNNY     81  59  47 S9G16     30.08F
MIDDLESBORO    MOSUNNY   84  60  43 S8        30.10F
MONTICELLO     PTCLDY    85  65  51 SE16      30.08F
$$




USA.gov is the U.S. government's official web portal to all federal, state and local government web resources and services.